Fukushima Airport
RJSF : rendu visible

Aérodrome :











RETROUVEZ-NOUS SUR...

 
LOGIN :

S'inscrire | Disclaimer

   EN    FR    IT 

 









Légende :    VFR   VFR Marginal   IFR   IFR Intensif   IFR Très Intensif
Visi : 
Plafond : 
>= 8 km
>= 3000ft
5 à 8 km
1000 à 3000 ft
1500m à 5 km
500 à 1000 ft
800 à 1500m
200 à 500 ft
< 800m
< 200 ft
Symboles :   Orages  Brouillard  Fortes neiges  Fortes précipitations  Vent > 20 kt






- Altitude de l'aérodrome : 1221 ft
- Code IATA : FKS


RJSF - Fukushima

DERNIER METAR :
  • 261100Z 36009KT 9999 FEW020 BKN035 08/04 Q1023

METARs EXPIRÉS :
  • 261000Z 34010KT 9999 FEW020 BKN035 08/04 Q1022
  • 260900Z 34010KT 9999 FEW020 SCT040 BKN/// 09/04 Q1022

TAF TAF RJSF
Valide du 26 à 12h jusqu'au 27 à 18h UTC


261105Z 2612/2718 36008KT 9999 FEW020 BKN040
BECMG 2703/2706 14004KT
FIR RJJJ / Asie



MET'MAP, la Météo Aéronautique d'un coup d'oeil ! - Copyright ORBIFLY Décembre 2007 - Disclaimer

ORBIFLY MET'MAP TEAM :

Programmation & Développement : Alexandra Zaïnal
Sur une idée originale de : Baudouin d'Aumeries
Assistance à la programmation : Marc-Olivier Méhu
Soutien technique & logistique : Manuel Goepfert

Contact : metmap@orbifly.com




SOURCES & CREDITS :

   NOAA       Earth
Advisory